Weather Roundup
Issued by NWS

Home | Current Version | Previous Version | Text Only | Print | Product List | Glossary On
Versions: 1 2 3 4 5 6 7 8 9 10 11 12 13 14 15 16 17 18 19 20 21 22 23 24 25 26 27 28 29 30 31 32 33 34 35 36 37 38 39 40 41 42 43 44 45 46 47 48 49 50
000
NZUS93 KARX 011110
HRRWXR

CURRENT HOURLY OBSERVATIONS ACROSS
MUCH OF THE UPPER MISSISSIPPI VALLEY
NATIONAL WEATHER SERVICE LA CROSSE WI
600 AM CDT MON SEP 01 2014


...SOUTHEAST MINNESOTA...


CITY           SKY/WX    TMP DP  RH WIND       PRES   REMARKS
ROCHESTER      TSTM      64  61  90 S14G28    29.66F FOG
ROCHESTER/MAYO CLOUDY    64  62  93 S17G23    29.66S
WINONA         CLOUDY    66  63  88 SW7       29.66R
AUSTIN         RAIN      64  63  94 S21       29.65S
ALBERT LEA     RAIN      64  64 100 SW3       29.66S
DODGE CENTER   CLOUDY    64  63  94 SW8       29.66S
PRESTON        LGT RAIN  63  63 100 SW8       29.68F
OWATONNA       CLOUDY    66  63  88 SW8       29.66R
FARIBAULT      CLOUDY    66  63  88 W8        29.65F HAZE
$$

...ELSEWHERE IN MINNESOTA...


CITY           SKY/WX    TMP DP  RH WIND       PRES   REMARKS
MINNEAPOLIS    CLOUDY    65  64  97 SW7       29.65R
INTNL FALLS    CLOUDY    58  58 100 W6        29.58R
DULUTH         LGT RAIN  64  62  93 NW6       29.59S
RED WING       CLOUDY    66  64  94 W3        29.63S THUNDER
REDWOOD FALLS  CLOUDY    64  63  96 NW8       29.66S
MANKATO        CLOUDY    64  61  88 SW6       29.66F
WORTHINGTON    MOCLDY    63  61  94 NW6       29.72S
FAIRMONT       CLOUDY    64  61  88 NW7       29.68R
$$

...SOUTHWEST WISCONSIN...


CITY           SKY/WX    TMP DP  RH WIND       PRES   REMARKS
LA CROSSE      CLOUDY    66  62  87 S7        29.64R
PRAIRIE DU CHI CLOUDY    66  62  86 SW7       29.70R
BOSCOBEL       CLOUDY    67  62  84 SW6       29.67R
LONE ROCK      CLOUDY    73  61  65 CALM      29.65F
PLATTEVILLE    CLOUDY    66  63  89 SE8       29.68F
FORT MC COY    CLOUDY    67  58  73 S5        29.66S
CAMP DOUGLAS   CLOUDY    68  63  85 S1        29.65F
VIROQUA        CLOUDY    64  64 100 SW7       29.68R
WIS DELLS      CLOUDY    69  58  67 S9        29.64F
$$

...ELSEWHERE IN WISCONSIN...


CITY           SKY/WX    TMP DP  RH WIND       PRES   REMARKS
MILWAUKEE      MOCLDY    71  69  93 S6        29.76F
MADISON        CLOUDY    70  60  70 SE8       29.67F
GREEN BAY      PTCLDY    70  68  93 S8        29.70S
EAU CLAIRE     HVY RAIN  65  64  97 W6        29.64F FOG
BLACK RVR FLS  PTSUNNY   64  63  97 CALM      29.64S
MEDFORD        CLOUDY    61  60  97 CALM      29.65F
WAUSAU         CLOUDY    67  60  78 CALM      29.64F
WIS RAPIDS     CLOUDY    67  59  75 S6        29.67F
MARSHFIELD     CLOUDY    63  61  93 SE5       29.65F
RICE LAKE      RAIN      64  62  93 S7        29.65F
$$

...NORTHEAST IOWA...


CITY           SKY/WX    TMP DP  RH WIND       PRES   REMARKS
WATERLOO       CLOUDY    66  63  90 S10       29.70S
DUBUQUE        CLOUDY    64  62  93 S8        29.69F
DECORAH        CLOUDY    64  63  94 SW8G15    29.70R
MASON CITY     CLOUDY    65  64  97 S8        29.68S
CHARLES CITY   LGT RAIN  64  63  94 S9        29.70F
OELWEIN        CLOUDY    64  63  94 S10       29.72F
$$

...ELSEWHERE IN IOWA...


CITY           SKY/WX    TMP DP  RH WIND       PRES   REMARKS
DES MOINES     CLOUDY    69  64  84 SW17      29.73R
IOWA CITY      CLOUDY    65  64  97 S5        29.74S
FORT DODGE     CLOUDY    66  64  94 SW9       29.70R
MARSHALLTOWN   LGT RAIN  66  63  90 S9        29.72R
CEDAR RAPIDS   CLOUDY    64  64 100 W5        29.73S
$$

...NORTHERN ILLINOIS...


CITY           SKY/WX    TMP DP  RH WIND       PRES   REMARKS
CHICAGO-OHARE  CLOUDY    74  67  78 S10       29.79F
DUPAGE         CLOUDY    73  70  90 S12       29.78F
CHICAGO-MIDWAY CLOUDY    75  71  87 S12       29.79F
MOLINE         CLOUDY    66  64  93 SE15      29.70F
ROCKFORD       CLOUDY    70  63  78 E9        29.71F
STERLING       MOCLDY    66  63  88 S6        29.73S
PEORIA         MOCLDY    72  66  81 CALM      29.80S
$$

NOTE: "FAIR" INDICATES FEW OR NO CLOUDS BELOW 12,000 FEET WITH NO
SIGNIFICANT WEATHER AND/OR OBSTRUCTIONS TO VISIBILITY. WIND
SPEEDS ARE IN MILES-PER-HOUR.



USA.gov is the U.S. government's official web portal to all federal, state and local government web resources and services.